GFSFLT1_sfc_temp_000.txt.gz
Temp
82 80 78 76 74 73 72 71 69 69 68 66 66 65 66 66 65 65 64 64 64 62 61 60 60 59 57 56 55 55 55 55
81 78 75 73 72 71 70 69 68 67 64 62 62 61 63 64 65 66 64 64 64 62 60 60 60 58 57 57 55 54 52 54
78 77 73 71 70 70 69 69 68 67 66 65 64 63 64 65 64 63 64 63 63 63 61 60 59 57 56 56 55 52 52 53
74 74 71 70 68 67 70 69 69 67 65 66 64 63 62 61 62 62 62 63 63 62 61 59 58 57 55 54 54 53 50 52
74 73 71 70 68 68 68 69 69 69 66 64 61 61 60 62 60 63 64 62 61 62 61 60 58 57 55 55 57 52 51 48
71 71 72 70 69 66 66 67 67 68 66 63 62 59 60 60 59 61 60 61 62 63 61 59 56 55 54 53 53 52 51 50
71 72 72 71 69 67 66 66 68 67 65 63 60 58 58 57 57 55 57 57 56 57 58 54 54 53 52 51 51 51 50 50
68 69 70 69 68 68 67 67 66 67 64 63 61 58 57 57 57 55 55 53 54 53 53 52 52 51 51 51 50 49 49 49
69 70 69 69 68 68 68 68 67 67 65 63 61 60 58 57 56 54 52 52 52 54 53 52 52 52 50 49 48 48 48 47
70 70 69 68 67 66 64 66 67 66 64 61 60 58 57 55 55 53 52 53 55 53 52 51 50 49 48 48 46 47 48 47
69 68 67 67 68 68 66 64 64 63 63 60 57 55 54 53 53 52 52 51 52 51 50 50 49 48 48 46 45 46 45 46
68 68 68 66 66 65 65 63 62 60 59 54 52 53 53 52 52 51 51 51 50 50 49 48 48 48 47 45 45 45 45 45
67 67 67 65 63 63 63 61 60 58 57 53 52 52 52 50 50 50 51 49 50 48 49 49 48 48 46 45 44 45 44 43
65 66 63 62 61 59 61 61 59 57 55 52 51 50 50 49 49 49 49 49 48 48 49 47 46 45 45 45 45 44 43 43
64 62 61 60 59 58 60 59 58 56 55 53 50 49 50 49 49 48 48 48 47 46 46 45 44 45 45 45 45 43 42 42
58 57 58 58 57 57 58 58 57 56 54 52 51 49 49 49 48 47 47 46 46 45 44 43 43 44 46 42 41 38 37 37
55 57 55 55 56 56 55 56 56 55 52 48 48 48 49 48 46 46 45 44 43 43 41 41 40 45 42 40 37 35 35 34
55 53 53 55 55 53 52 53 51 48 47 46 46 47 48 46 46 45 42 40 40 39 39 39 39 39 40 39 37 34 33 32
52 53 55 55 52 49 48 49 50 47 46 46 48 48 46 46 44 42 40 39 38 38 37 37 36 38 37 37 36 32 31 31

GFSFLT1_sfc_temp_003.txt.gz
Temp
70 67 66 64 64 64 64 63 63 62 60 59 58 58 59 57 57 58 60 59 60 57 55 55 56 54 52 53 52 52 51 50
67 65 64 63 62 64 64 62 61 60 58 56 56 55 57 56 58 59 59 58 60 58 55 55 55 54 53 53 52 51 50 50
67 65 61 62 62 62 62 62 61 60 58 57 57 56 56 57 58 57 58 58 58 58 56 55 55 53 54 53 51 49 49 50
65 66 62 60 60 61 62 62 61 59 60 58 56 55 55 56 56 55 56 58 58 58 56 54 54 52 51 51 51 50 47 49
64 63 60 59 60 60 63 63 62 61 58 57 56 55 55 56 56 56 56 57 57 58 58 56 54 52 51 50 53 49 48 45
63 60 61 61 60 58 60 61 62 62 59 56 56 54 54 56 56 56 54 54 56 57 55 53 52 50 51 49 48 48 47 46
61 61 63 62 60 58 57 58 60 60 60 59 56 56 58 54 53 52 52 52 52 52 53 50 49 49 50 49 49 48 46 46
59 58 61 60 59 59 58 58 58 59 58 57 57 57 57 56 53 50 49 49 49 50 51 50 50 50 50 50 49 47 46 45
59 58 59 58 58 58 59 60 60 60 57 56 56 56 56 58 54 50 47 47 48 50 49 49 50 50 50 50 49 46 44 45
57 58 58 57 57 57 55 56 58 58 55 54 51 50 50 47 47 47 47 49 51 49 48 48 48 48 48 47 44 43 43 44
58 57 56 57 56 55 55 56 56 56 52 50 49 48 48 48 49 48 48 48 49 48 47 46 46 47 47 46 44 44 42 42
57 58 58 55 54 54 54 55 55 52 49 47 47 47 47 47 48 48 47 47 48 47 47 46 47 46 47 45 44 43 42 42
58 56 54 54 54 53 55 55 51 51 46 46 46 46 45 45 46 46 46 45 47 47 46 47 46 46 45 43 42 41 41 40
54 54 54 54 52 53 53 54 50 50 47 45 45 45 44 43 44 45 46 46 45 46 46 45 44 43 43 41 41 41 40 39
52 52 53 52 53 54 51 49 50 50 47 45 43 43 43 43 42 43 44 45 43 43 43 43 42 42 43 42 42 39 38 38
51 52 51 49 52 52 49 49 50 51 49 45 42 42 43 44 43 43 43 42 43 42 41 40 39 40 43 39 36 34 33 32
52 52 52 52 52 49 49 48 48 48 46 44 44 44 44 44 45 45 42 41 40 39 37 36 36 41 40 38 35 31 31 30
50 50 50 51 48 47 44 46 47 47 45 45 43 43 43 43 45 43 40 37 36 34 34 34 33 33 38 38 37 33 31 30
47 49 50 45 44 43 43 44 47 45 45 45 44 43 42 42 41 40 36 35 33 33 32 32 31 34 36 36 36 32 29 29

GFSFLT1_sfc_temp_006.txt.gz
Temp
64 64 62 60 60 61 61 61 61 60 57 56 55 55 55 54 55 55 58 57 58 54 53 53 53 51 51 50 50 49 49 49
60 60 60 59 59 61 60 60 60 57 55 54 53 54 54 54 54 57 56 57 57 55 53 53 52 51 51 50 50 49 48 48
61 60 56 60 59 60 60 60 59 58 55 55 55 54 54 56 55 54 56 56 55 55 53 52 52 50 50 50 50 47 47 47
60 60 58 56 58 59 61 60 60 58 57 55 53 52 52 52 53 53 54 55 56 55 54 52 51 50 49 49 49 47 45 46
61 59 56 56 58 57 58 60 59 59 57 54 53 58 57 59 59 54 54 56 56 55 54 52 50 49 48 48 49 46 45 43
57 57 58 60 59 57 57 58 58 60 57 55 53 54 56 58 51 52 51 52 53 53 53 50 49 49 48 47 48 45 45 43
58 58 57 57 56 56 57 56 58 58 57 56 52 52 55 52 52 51 49 47 47 48 50 48 47 47 47 47 47 45 45 46
56 57 55 55 54 54 56 56 57 59 55 54 54 52 53 53 54 53 50 49 47 48 48 48 47 47 46 45 47 46 45 45
55 55 54 54 55 55 56 58 56 57 55 54 52 51 49 49 49 47 45 47 46 47 46 45 46 47 45 46 45 44 44 42
54 55 54 52 52 53 53 52 56 55 53 50 47 46 46 44 44 44 45 46 48 46 45 44 44 45 45 45 42 42 43 42
55 54 53 53 52 52 52 53 54 52 49 48 47 45 45 45 44 44 44 45 46 45 45 44 44 45 45 44 42 42 41 40
52 54 56 57 56 55 52 50 50 48 48 46 45 45 45 44 43 43 44 45 46 46 45 44 44 44 44 42 41 41 39 39
51 52 52 52 51 49 50 49 48 47 47 45 44 43 43 42 42 43 43 44 46 46 45 45 44 44 43 41 39 39 37 37
49 50 51 50 50 49 50 48 47 47 46 43 42 42 41 40 41 42 44 44 44 44 44 43 43 42 41 40 39 39 38 38
49 48 49 49 49 48 48 46 46 46 46 42 41 41 40 40 40 41 43 43 42 42 42 42 41 40 40 39 39 36 34 34
48 48 47 47 47 47 46 45 46 45 44 42 40 41 41 41 41 41 43 43 42 41 39 38 37 38 40 35 33 31 30 30
50 49 48 48 48 46 45 44 44 44 44 44 44 44 43 42 42 42 42 40 40 38 36 35 34 38 38 37 35 30 31 30
48 47 47 46 44 45 42 42 42 45 45 44 43 43 42 42 42 41 39 36 35 34 33 32 31 31 37 37 36 32 30 30
48 46 45 44 43 42 41 41 42 42 42 43 42 41 40 39 38 37 34 34 33 31 31 31 30 32 35 36 35 30 28 29

GFSFLT1_sfc_temp_012.txt.gz
Temp
56 57 56 56 56 57 58 57 56 55 53 52 52 51 52 51 52 52 54 54 54 53 51 51 50 49 48 46 47 46 47 47
52 53 53 54 54 56 57 56 56 53 52 52 51 52 52 52 52 53 53 54 54 53 52 51 50 50 51 48 46 46 45 45
55 54 52 55 56 56 56 56 56 54 52 52 51 50 51 51 52 52 53 53 54 54 53 52 51 51 47 47 46 44 45 44
54 55 54 53 55 55 55 55 55 54 54 53 52 51 51 51 53 51 54 53 54 53 55 54 52 51 51 50 48 45 46 43
55 55 52 52 54 53 54 55 55 56 54 52 50 49 49 52 52 53 55 52 51 53 53 52 51 50 48 45 46 45 43 41
53 53 54 51 51 50 50 53 54 54 52 51 49 50 52 50 50 48 50 50 48 50 50 50 47 45 45 47 44 44 45 43
55 52 52 50 50 50 50 51 52 53 52 52 49 46 46 46 47 46 47 46 44 44 46 44 43 42 42 42 44 45 44 44
50 48 49 50 50 50 51 50 51 52 53 50 47 46 45 45 46 46 45 43 40 39 41 42 42 41 42 43 42 43 42 41
47 48 48 49 50 50 50 50 51 50 48 47 47 47 45 46 45 44 41 40 38 40 41 41 42 42 42 44 43 42 41 39
48 50 50 49 49 50 48 48 48 48 46 45 45 45 45 44 43 40 39 39 41 40 41 41 42 45 44 43 41 40 39 39
49 50 50 51 50 49 48 47 47 47 45 45 46 45 45 43 40 39 39 40 41 41 42 42 42 43 44 42 41 41 40 40
49 49 49 49 48 48 47 47 46 46 45 43 43 45 44 41 39 38 39 40 41 42 44 43 43 41 41 40 40 40 39 39
48 48 48 48 48 48 47 46 45 44 43 43 43 42 39 38 38 39 40 42 43 43 44 43 42 41 40 39 37 37 36 35
49 50 48 48 47 47 46 46 44 44 43 42 40 39 37 37 38 39 41 41 43 43 43 43 41 40 38 37 36 35 34 34
50 48 47 47 47 46 45 44 44 43 41 39 38 37 36 36 37 38 40 41 42 41 41 39 38 37 37 37 36 34 32 32
46 45 48 49 49 47 45 44 42 41 40 39 38 39 38 38 38 39 40 40 40 39 38 37 36 36 38 34 33 32 31 31
45 46 45 45 46 43 43 43 41 41 40 40 43 43 42 40 41 41 40 40 39 36 34 33 32 35 36 37 35 31 31 31
44 47 48 47 44 43 42 41 39 39 40 42 41 42 41 40 40 38 35 33 33 32 32 31 31 31 35 36 35 32 30 29
45 47 45 43 42 40 38 37 38 38 37 38 39 39 39 36 35 33 32 32 32 30 30 30 29 31 34 34 33 29 27 27

GFSFLT1_sfc_temp_015.txt.gz
Temp
67 68 68 69 68 69 70 70 68 67 68 67 67 67 68 67 67 68 66 67 65 65 66 65 65 65 64 63 62 63 63 64
65 64 65 66 66 68 69 69 67 67 67 67 67 67 68 68 69 66 65 66 65 64 65 65 64 63 63 63 62 60 60 61
63 64 65 64 66 67 66 66 65 65 66 66 65 64 66 65 65 65 65 64 64 64 63 64 64 62 62 61 59 60 60 61
65 66 65 64 64 63 64 64 64 64 63 66 66 65 65 66 67 67 67 64 63 62 62 62 62 62 60 61 61 59 59 60
65 65 64 61 61 61 63 64 65 64 63 63 60 61 60 63 62 63 63 62 62 61 60 60 60 60 59 59 61 58 57 57
62 60 60 60 60 60 61 63 63 62 61 60 60 59 60 60 60 59 59 61 60 59 57 57 57 58 57 55 56 55 56 56
60 60 61 61 60 60 61 62 62 62 61 60 58 57 56 57 58 58 59 59 58 55 54 53 53 52 52 52 51 50 50 50
58 59 60 61 61 60 61 61 61 60 59 57 57 56 56 55 56 57 55 55 55 52 52 51 51 51 51 51 48 45 43 41
57 58 59 60 59 59 60 59 59 59 58 57 56 57 56 55 55 54 52 52 51 50 51 52 51 51 51 48 44 42 41 40
58 59 59 60 59 58 57 57 58 58 57 55 55 54 54 54 53 52 50 50 50 51 52 52 50 49 47 46 45 41 41 41
60 61 60 59 59 59 56 59 57 57 57 55 54 54 54 52 51 49 49 49 50 50 50 51 51 51 50 48 48 47 45 45
60 60 60 59 58 59 58 57 56 56 55 53 52 52 51 49 48 48 48 50 50 50 50 50 48 47 48 48 48 47 46 46
58 58 58 57 58 58 57 56 55 53 52 52 50 49 48 47 47 48 48 49 49 49 49 46 45 48 47 45 44 45 44 44
57 57 56 56 57 56 56 54 52 52 52 50 48 47 46 46 46 47 48 48 48 47 46 44 43 43 44 45 44 44 44 43
55 55 54 53 53 52 51 51 52 51 49 48 46 45 45 45 46 46 46 47 46 46 44 40 39 41 43 43 42 42 41 41
51 50 51 51 51 51 51 51 50 49 48 47 46 45 45 44 45 46 47 47 47 46 43 42 41 41 42 40 41 40 39 39
49 50 51 50 49 49 48 48 47 46 45 45 45 44 45 46 46 46 45 44 43 41 40 39 39 39 36 36 37 38 38 37
46 48 49 48 48 48 46 46 46 45 44 45 45 45 45 44 44 43 41 40 41 40 39 39 38 38 35 35 34 37 36 35
47 49 48 48 48 47 45 45 45 44 44 44 44 43 42 41 41 40 40 40 39 38 38 38 37 37 33 33 33 35 34 34

GFSFLT1_sfc_temp_018.txt.gz
Temp
81 81 82 82 79 79 81 81 79 78 81 79 80 80 80 80 80 80 77 76 74 73 74 74 74 73 73 73 71 73 72 71
79 77 77 78 76 77 78 77 75 79 81 77 79 77 78 79 80 76 75 75 73 72 73 73 72 72 70 70 70 68 69 71
76 76 76 75 75 75 75 75 74 76 80 78 75 74 77 76 76 75 75 72 72 72 70 70 70 70 69 68 67 67 68 69
75 74 73 74 72 73 74 74 74 73 73 77 77 77 76 75 71 72 73 71 70 70 69 68 68 68 68 68 67 66 64 67
74 73 71 70 70 72 73 73 73 72 71 72 69 70 67 68 70 71 70 70 68 68 67 67 66 66 65 66 67 65 64 62
70 70 70 70 70 70 72 72 72 71 70 68 69 67 69 69 68 65 67 69 69 68 66 64 64 64 63 61 60 60 61 58
70 70 71 71 70 70 71 71 71 70 69 68 66 64 62 63 65 64 66 66 67 66 64 62 61 61 59 58 53 50 49 49
69 69 70 70 70 70 70 70 69 70 67 65 63 65 64 63 63 63 61 62 63 62 60 60 62 58 54 52 50 47 44 41
68 69 70 70 68 68 68 68 68 68 67 65 66 65 65 64 63 61 59 60 60 59 59 60 58 57 54 50 47 44 43 43
67 69 70 69 68 68 66 67 69 68 67 66 64 63 62 60 59 59 59 59 59 57 57 56 56 56 54 53 51 51 49 47
68 69 69 69 69 68 67 68 67 66 65 64 62 61 61 59 58 56 56 57 57 56 55 56 54 53 51 49 49 50 48 48
67 67 68 68 67 67 66 66 65 64 63 61 60 59 58 57 56 56 56 56 56 55 55 53 50 47 46 47 48 48 48 48
67 67 66 66 65 66 65 63 62 62 61 60 58 57 56 56 54 54 55 54 55 54 53 49 48 47 47 47 46 49 48 47
66 65 64 63 63 61 62 61 60 60 60 58 57 55 54 54 54 53 54 53 51 51 47 45 46 46 46 47 48 48 47 48
63 62 61 62 61 61 59 59 59 58 57 56 54 53 52 46 47 50 50 50 49 49 49 48 47 47 47 47 47 46 46 46
58 58 56 59 59 58 58 58 57 56 55 54 50 49 48 49 51 52 52 52 51 50 49 48 47 46 47 42 43 43 44 44
54 54 56 57 56 56 56 56 55 55 54 52 52 52 52 52 51 50 50 50 50 49 47 47 45 47 36 36 37 41 42 43
53 54 56 56 56 56 55 55 55 53 52 52 51 51 50 49 50 49 48 47 47 46 46 45 44 44 35 35 34 39 40 41
55 56 57 57 57 57 56 56 54 52 51 50 50 49 48 48 48 47 46 46 45 45 44 43 43 43 36 34 33 38 39 39